Home   Weather   Celle   Past weeks

Flag for Germany Past Weather in Celle, Lower Saxony, Germany — Yesterday and Last 2 Weeks

Now
46 °F

Partly sunny.


Feels Like: 44 °F
Forecast: 35 / 50 °F
Wind: 6 mph from West

Location: Celle Airport

Current Time: Apr 28, 2017 at 8:20:21 pm

Latest Report: Apr 28, 2017 at 7:20 pm


Visibility: N/A

Pressure: 29.92 "Hg

Humidity: 82%

Dew Point: 41 °F

Location of CelleLocation

Past Weather in Celle — Graph

°F

Celle Temperature Yesterday

Maximum temperature yesterday: 52 °F (at 4:20 pm)
Minimum temperature yesterday: 28 °F (at 3:20 am)
Average temperature yesterday: 40 °F

High & Low Weather Summary for the Past Weeks

 TemperatureHumidityPressure
High55 °F (Apr 21, 2:20 pm)100% (Apr 18, 6:20 am)30.63 "Hg (Apr 18, 6:20 am)
Low23 °F (Apr 20, 6:20 am)32% (Apr 20, 2:20 pm)29.62 "Hg (Apr 25, 4:20 am)
Average42 °F70%30.07 "Hg
* Reported Apr 13 6:20 pm — Apr 28 6:20 pm, Celle, Weather by CustomWeather, © 2017

Note: Actual official high and low records may vary slightly from our data, if they occured in-between our weather recording intervals... More about our weather records

Advertising

Celle Weather History for the Previous 24 Hours

Scroll right to see more
 ConditionsComfort  
Time TempWeatherWind HumidityBarometerVisibility
6:20 pm
Fri, Apr 28
52 °FBroken clouds.10 mph50%29.89 "HgN/A
5:20 pm52 °FBroken clouds.10 mph50%29.89 "HgN/A
4:20 pm52 °FBroken clouds.7 mph50%29.89 "HgN/A
3:20 pm50 °FBroken clouds.10 mph54%29.89 "HgN/A
2:20 pm50 °FBroken clouds.13 mph50%29.89 "HgN/A
1:20 pm50 °FBroken clouds.10 mph50%29.89 "HgN/A
12:20 pm48 °FBroken clouds.5 mph54%29.92 "HgN/A
11:20 am48 °FScattered clouds.12 mph50%29.92 "HgN/A
10:20 am48 °FPassing clouds.13 mph50%29.92 "HgN/A
9:20 am46 °FPassing clouds.7 mph57%29.92 "HgN/A
8:20 am41 °FPassing clouds.5 mph66%29.92 "HgN/A
7:20 am34 °FPassing clouds.No wind81%29.92 "HgN/A
6:20 am30 °FPassing clouds.No wind86%29.92 "HgN/A
5:20 am30 °FPassing clouds.No wind93%29.92 "HgN/A
4:20 am32 °FPassing clouds.No wind87%29.92 "HgN/A
3:20 am34 °FPassing clouds.1 mph81%29.95 "HgN/A
2:20 am36 °FPassing clouds.No wind81%29.95 "HgN/A
1:20 am37 °FPassing clouds.No wind75%29.95 "HgN/A
12:20 am37 °FPassing clouds.No wind70%29.95 "HgN/A
11:20 pm
Thu, Apr 27
37 °FPassing clouds.No wind70%29.95 "HgN/A
10:20 pm37 °FPassing clouds.1 mph70%29.98 "HgN/A
9:20 pm41 °FPassing clouds.No wind61%29.95 "HgN/A
8:20 pm46 °FPassing clouds.5 mph46%29.95 "HgN/A
Weather by CustomWeather, © 2017

See weather overviewHow to use our weather pages